THOR ABLESTAR DEB, 132

Orbit data source: Space-Track

THOR ABLESTAR DEB, 132 is space debris in LEO originally from a launch on Thu, 29 Jun 1961 UTC launched from the Air Force Eastern Test Range (AFETR). Debris objects in space refer to the collection of defunct objects orbiting the Earth. Examples of debris include non-operational satellites, rocket bodies, and fragments generated from explosions, collisions, or faulty payload assembly.

Loading next visibility...
Identifier
132, 1961-015S
Orbit
LEO
Country
Flag of USUS
Related business
Manufacturer
Unknown
Mission
Spacecraft
Bus & Motor
Unknown
Mass
Unknown
Launch date (UTC)
1961-06-29 (64 years ago)
Launch vehicle
Unknown
Launch site
Air Force Eastern Test Range (AFETR)
Object type
Payload
Rocket body
Debris
Shape & HBR
Unknown
Radar Cross Section
Medium (>0.1 m² and <1 m²)

Expand to show TLE details & history
Last TLE update: 11 hours ago

TLE from 11 hours ago
0 THOR ABLESTAR DEB
1 00132U 61015S   25261.02657686  .00000005  00000-0  60900-4 0  9999
2 00132  66.6588 284.6247 0073056   7.8466 352.3737 13.94712130265714
Epoch: 2025-09-18T00:38Z
TLE epoch observation values (Epoch: 2025-09-18T00:38:16.24Z)
Latitude
-0.00009°
Longitude
-82.13708°
Altitude
861.445 km
Speed
7.449 km/s
True Right ascension
18h 58m 29s
True Declination
0° 00' 00"
Sunlit
Object was in daylight at epoch
Visualization orbit readout
Latitude
Unknown
Longitude
Unknown
Altitude
Unknown
Speed
Unknown
Apparent Right ascension
Unknown
Apparent Declination
Unknown
Sunlit
N/A
Visualization observer readout
Local Sidereal Time
04:28:35
Azimuth
Unknown
Elevation
Unknown
Doppler factor
Unknown
Orbital elements
Apogee altitude
963.819 km
Perigee altitude
857.322 km
Semi-major axis
7,288.707 km
Eccentricity
0.00731
Inclination
66.6588°
RAAN
284.6247°
Arg. of periapsis
7.8466°
True anomaly
352.26159°
Mean anomaly
352.3737°
Eccentric anomaly
352.31774°
Mean motion
3.48793 °/min
Orbital period
103.21 mins
BSTAR
0.0000609
Loading maneuver chart data...
Computing Atmospheric mass density...

Documentation

Showing up to 5 results
|